Location: Newark
(50.4348°N, 30.5552°E)
Time: 20:06:54
(UTC+00:00)

Vanguard 3 - Pass Details

Date: 22 January 2020
Orbit: 508 x 3263 km, 33.3° (Epoch: 25 February)

Event Time Altitude Azimuth Distance (km) Brightness Sun altitude
Rises 17:30:54 0° 242° (WSW) 7,224 12.9 -27.9°
Reaches altitude 10° 17:36:24 10° 236° (SW) 6,123 12.2 -28.8°
Maximum altitude 17:52:35 39° 177° (S) 3,500 10.1 -31.4°
Enters shadow 17:56:50 33° 147° (SSE) 3,441 9.9 -32.1°
